TimeEDT,TemperatureF,Dew PointF,Humidity,Sea Level PressureIn,VisibilityMPH,Wind Direction,Wind SpeedMPH,Gust SpeedMPH,PrecipitationIn,Events,Conditions,WindDirDegrees,DateUTC
12:15 AM,43.5,38.7,83,29.89,5.0,ESE,5.8,-,N/A,,Haze,120,2013-03-17 04:15:00
12:35 AM,44.2,38.8,81,29.89,7.0,South,3.5,-,N/A,,Scattered Clouds,180,2013-03-17 04:35:00
12:55 AM,44.2,38.8,81,29.89,7.0,SSE,6.9,-,N/A,,Scattered Clouds,160,2013-03-17 04:55:00
1:15 AM,42.8,37.6,82,29.89,5.0,ESE,4.6,-,N/A,,Haze,110,2013-03-17 05:15:00
1:35 AM,42.3,37.8,84,29.90,5.0,South,3.5,-,N/A,,Clear,190,2013-03-17 05:35:00
1:55 AM,40.8,36.0,83,29.91,5.0,Calm,Calm,-,N/A,,Haze,0,2013-03-17 05:55:00
2:15 AM,41.7,37.0,83,29.92,5.0,Calm,Calm,-,N/A,,Haze,0,2013-03-17 06:15:00
2:35 AM,40.6,36.3,85,29.92,5.0,SE,4.6,-,N/A,,Haze,130,2013-03-17 06:35:00
2:55 AM,40.6,36.3,85,29.92,5.0,Calm,Calm,-,N/A,,Haze,0,2013-03-17 06:55:00
3:15 AM,41.4,37.2,85,29.93,5.0,South,4.6,-,N/A,,Haze,180,2013-03-17 07:15:00
3:35 AM,40.8,36.7,85,29.93,5.0,Calm,Calm,-,N/A,,Clear,0,2013-03-17 07:35:00
3:55 AM,40.8,37.4,88,29.94,5.0,SE,3.5,-,N/A,,Clear,140,2013-03-17 07:55:00
4:15 AM,41.2,37.2,86,29.93,5.0,East,4.6,-,N/A,,Clear,80,2013-03-17 08:15:00
4:55 AM,40.8,37.4,88,29.94,5.0,SSE,3.5,-,N/A,,Scattered Clouds,150,2013-03-17 08:55:00
5:15 AM,40.1,36.3,86,29.94,5.0,Calm,Calm,-,N/A,,Mostly Cloudy,0,2013-03-17 09:15:00
5:35 AM,40.1,36.3,86,29.95,5.0,SSE,4.6,-,N/A,,Mostly Cloudy,160,2013-03-17 09:35:00
5:55 AM,40.6,36.1,84,29.97,7.0,South,3.5,-,N/A,,Mostly Cloudy,180,2013-03-17 09:55:00
6:15 AM,41.5,36.5,82,29.98,7.0,South,5.8,-,N/A,,Overcast,180,2013-03-17 10:15:00
6:35 AM,41.2,36.5,83,29.99,7.0,SE,4.6,-,N/A,,Overcast,140,2013-03-17 10:35:00
6:55 AM,41.0,36.5,84,30.00,7.0,ESE,3.5,-,N/A,,Overcast,120,2013-03-17 10:55:00
7:15 AM,41.2,35.8,81,30.02,10.0,SE,5.8,-,N/A,,Overcast,130,2013-03-17 11:15:00
7:35 AM,41.9,35.6,78,30.04,10.0,ESE,8.1,-,N/A,,Overcast,120,2013-03-17 11:35:00
7:55 AM,41.9,35.4,78,30.05,10.0,East,5.8,-,N/A,,Overcast,90,2013-03-17 11:55:00
8:15 AM,42.1,34.9,76,30.05,10.0,East,4.6,-,N/A,,Overcast,90,2013-03-17 12:15:00
8:35 AM,42.1,34.7,75,30.07,10.0,ESE,3.5,-,N/A,,Overcast,110,2013-03-17 12:35:00
9:15 AM,41.5,33.8,74,30.10,10.0,East,4.6,-,N/A,,Overcast,100,2013-03-17 13:15:00
9:35 AM,41.4,33.1,72,30.13,10.0,ENE,3.5,-,N/A,,Overcast,70,2013-03-17 13:35:00
9:55 AM,41.2,32.5,71,30.13,10.0,East,4.6,-,N/A,,Overcast,90,2013-03-17 13:55:00
10:15 AM,41.2,32.5,71,30.12,10.0,NE,3.5,-,N/A,Rain,Light Rain,40,2013-03-17 14:15:00
10:35 AM,40.1,32.0,73,30.13,5.0,NNE,8.1,-,N/A,Rain,Light Rain,30,2013-03-17 14:35:00
10:55 AM,37.4,32.7,83,30.14,2.5,Calm,Calm,-,N/A,Snow,Light Snow,0,2013-03-17 14:55:00
11:15 AM,37.0,33.3,86,30.15,3.0,Calm,Calm,-,0.01,Snow,Light Snow,0,2013-03-17 15:15:00
11:35 AM,36.1,33.1,89,30.17,2.0,Calm,Calm,-,0.02,Snow,Light Snow,0,2013-03-17 15:35:00
11:55 AM,36.3,33.4,89,30.17,1.8,Calm,Calm,-,0.03,Snow,Light Snow,0,2013-03-17 15:55:00
12:15 PM,36.1,33.4,90,30.16,1.2,Calm,Calm,-,0.01,Snow,Light Snow,0,2013-03-17 16:15:00
12:35 PM,36.3,33.6,90,30.15,3.0,Calm,Calm,-,0.01,Snow,Light Snow,0,2013-03-17 16:35:00
12:55 PM,36.9,34.2,90,30.15,5.0,Calm,Calm,-,0.01,,Overcast,0,2013-03-17 16:55:00
1:15 PM,37.4,33.4,86,30.14,10.0,ESE,4.6,-,N/A,,Overcast,110,2013-03-17 17:15:00
1:35 PM,38.1,32.4,80,30.15,10.0,Calm,Calm,-,N/A,,Overcast,0,2013-03-17 17:35:00
1:55 PM,38.5,32.4,79,30.15,10.0,Calm,Calm,-,N/A,,Overcast,0,2013-03-17 17:55:00
2:15 PM,38.5,32.0,78,30.15,10.0,Calm,Calm,-,0.01,,Overcast,0,2013-03-17 18:15:00
2:35 PM,38.8,32.0,76,30.15,10.0,Calm,Calm,-,0.01,,Overcast,0,2013-03-17 18:35:00
2:55 PM,39.0,31.8,75,30.14,10.0,Calm,Calm,-,0.01,,Overcast,0,2013-03-17 18:55:00
3:15 PM,39.4,31.8,74,30.14,10.0,Calm,Calm,-,N/A,,Overcast,0,2013-03-17 19:15:00
3:35 PM,39.2,30.6,71,30.14,10.0,Calm,Calm,-,N/A,,Overcast,0,2013-03-17 19:35:00
3:55 PM,39.2,29.8,69,30.14,10.0,NNE,3.5,-,N/A,,Overcast,30,2013-03-17 19:55:00
4:15 PM,39.4,30.0,69,30.14,10.0,Calm,Calm,-,N/A,,Overcast,0,2013-03-17 20:15:00
4:35 PM,39.4,30.0,69,30.15,10.0,North,5.8,-,N/A,,Overcast,350,2013-03-17 20:35:00
4:55 PM,38.5,29.3,70,30.15,10.0,Calm,Calm,-,N/A,,Overcast,0,2013-03-17 20:55:00
5:15 PM,38.1,30.0,73,30.16,5.0,Calm,Calm,-,N/A,Snow,Light Snow,0,2013-03-17 21:15:00
5:35 PM,37.4,30.2,75,30.17,5.0,Calm,Calm,-,N/A,Snow,Light Snow,0,2013-03-17 21:35:00
5:55 PM,36.9,31.1,80,30.17,7.0,Calm,Calm,-,N/A,Snow,Light Snow,0,2013-03-17 21:55:00
6:15 PM,36.5,31.3,81,30.18,7.0,Calm,Calm,-,N/A,,Overcast,0,2013-03-17 22:15:00
6:35 PM,36.1,31.8,84,30.18,7.0,Calm,Calm,-,N/A,,Overcast,0,2013-03-17 22:35:00
6:55 PM,35.8,31.8,86,30.19,5.0,Calm,Calm,-,N/A,,Overcast,0,2013-03-17 22:55:00
7:15 PM,35.6,31.8,86,30.19,5.0,Calm,Calm,-,N/A,,Overcast,0,2013-03-17 23:15:00
7:35 PM,35.6,32.0,87,30.19,7.0,SSW,3.5,-,N/A,,Overcast,200,2013-03-17 23:35:00
7:55 PM,35.8,32.2,87,30.19,7.0,South,3.5,-,N/A,,Overcast,170,2013-03-17 23:55:00
8:15 PM,35.8,32.2,87,30.19,5.0,Calm,Calm,-,N/A,Snow,Light Snow,0,2013-03-18 00:15:00
8:35 PM,35.6,32.5,89,30.20,4.0,Calm,Calm,-,N/A,Snow,Light Snow,0,2013-03-18 00:35:00
8:55 PM,35.4,32.2,88,30.21,2.5,Calm,Calm,-,N/A,Snow,Light Snow,0,2013-03-18 00:55:00
9:15 PM,35.1,32.0,89,30.21,1.8,Calm,Calm,-,N/A,Snow,Light Snow,0,2013-03-18 01:15:00
9:35 PM,34.7,32.0,90,30.21,1.8,Calm,Calm,-,N/A,Snow,Light Snow,0,2013-03-18 01:35:00
9:55 PM,34.3,32.0,91,30.22,2.5,Calm,Calm,-,N/A,Snow,Light Snow,0,2013-03-18 01:55:00
10:15 PM,34.0,32.0,92,30.22,2.0,Calm,Calm,-,N/A,Snow,Light Snow,0,2013-03-18 02:15:00
10:35 PM,33.4,31.6,93,30.23,2.0,Calm,Calm,-,N/A,Snow,Light Snow,0,2013-03-18 02:35:00
10:55 PM,32.9,31.3,94,30.23,2.5,Calm,Calm,-,N/A,,Overcast,0,2013-03-18 02:55:00
11:15 PM,32.7,30.9,93,30.23,2.0,Calm,Calm,-,N/A,Snow,Light Snow,0,2013-03-18 03:15:00
11:35 PM,32.2,30.6,94,30.23,1.5,Calm,Calm,-,N/A,Snow,Light Snow,0,2013-03-18 03:35:00
11:55 PM,32.9,31.3,94,30.23,1.2,Calm,Calm,-,N/A,Snow,Light Snow,0,2013-03-18 03:55:00